Time_in_sec,Latitude,Longitude,Altitude,Nbsat,valid_data
1312472367.08741689,47.37634659,8.55017471,522.16864014,4,1
1312472464.24443007,47.37630463,8.55009079,536.03100586,3,1
1312472464.29628515,47.37630463,8.55009079,535.99914551,3,1
1312472464.34461999,47.37630463,8.55009079,535.96722412,3,1
1312472464.39251089,47.37630463,8.55009079,535.93536377,3,1
1312472464.44335699,47.37630463,8.55009079,535.90332031,3,1
1312472464.49249768,47.37630463,8.55009079,535.87133789,3,1
1312472464.54450750,47.37630463,8.55009079,535.83923340,3,1
1312472464.59651971,47.37630463,8.55009079,535.80718994,3,1
1312472464.64444065,47.37630463,8.55009079,535.77502441,3,1
1312472464.69644737,47.37630463,8.55009079,535.74285889,3,1
1312472464.74450564,47.37630463,8.55009079,535.71063232,3,1
1312472464.79245329,47.37630463,8.55009079,535.67846680,3,1
1312472464.84329104,47.37630463,8.55009079,535.64617920,3,1
1312472464.89578915,47.37630463,8.55009079,535.61389160,3,1
1312472464.94331026,47.37630463,8.55009079,535.58154297,3,1
1312472464.99595833,47.37630463,8.55009079,535.54919434,3,1
1312472465.04344058,47.37630463,8.55009079,535.51672363,3,1
1312472465.09242249,47.37630463,8.55009079,535.48431396,3,1
1312472465.14329004,47.37630463,8.55009079,535.45184326,3,1
1312472465.19633651,47.37630463,8.55009079,535.41937256,3,1
1312472465.24329686,47.37630463,8.55009079,535.38677979,3,1
1312472465.29639888,47.37630463,8.55009079,535.35418701,3,1
1312472465.34332681,47.37630463,8.55009079,535.32153320,3,1
1312472465.39633250,47.37630463,8.55009079,535.28887939,3,1
1312472465.44327426,47.37630463,8.55009079,535.25610352,3,1
1312472465.49633050,47.37630463,8.55009079,535.22332764,3,1
1312472465.54328251,47.37630463,8.55009079,535.19049072,3,1
1312472465.59632754,47.37630463,8.55009079,535.15765381,3,1
1312472465.64337587,47.37630463,8.55009079,535.12469482,3,1
1312472465.69641662,47.37630463,8.55009079,535.09179688,3,1
1312472465.74435091,47.37630463,8.55009079,535.05883789,3,1
1312472465.79642797,47.37630463,8.55009079,535.02581787,3,1
1312472465.84329891,47.37630463,8.55009079,534.99279785,3,1
1312472465.89643431,47.37630463,8.55009079,534.95971680,3,1
1312472465.94333744,47.37630463,8.55009079,534.92663574,3,1
1312472465.99641800,47.37630081,8.55009079,534.89349365,3,1
1312472466.04336739,47.37630081,8.55009079,534.86022949,3,1
1312472466.09642768,47.37630081,8.55009079,534.82702637,3,1
1312472466.14342737,47.37630081,8.55009079,534.79376221,3,1
1312472466.19642973,47.37630081,8.55009079,534.76049805,3,1
1312472466.24443913,47.37630081,8.55009079,534.72711182,3,1
1312472466.29641795,47.37630081,8.55009079,534.69378662,3,1
1312472466.34334946,47.37630081,8.55009079,534.66033936,3,1
1312472466.39641786,47.37630081,8.55009079,534.62695312,3,1
1312472466.44330645,47.37630081,8.55008984,534.59344482,3,1
1312472466.49642348,47.37630081,8.55008984,534.55993652,3,1
1312472466.54312658,47.37630081,8.55008984,534.52636719,3,1
1312472466.59642577,47.37630081,8.55008984,534.49279785,3,1
1312472466.64443207,47.37630081,8.55008984,534.45916748,3,1
1312472466.69539475,47.37630081,8.55008984,534.42559814,3,1
1312472466.74443078,47.37630081,8.55008984,534.39184570,3,1
1312472466.79646015,47.37630081,8.55008984,534.35815430,3,1
1312472466.84331012,47.37630081,8.55008984,534.32434082,3,1
1312472466.89635372,47.37630081,8.55008984,534.29058838,3,1
1312472466.94446015,47.37630081,8.55008984,534.25677490,3,1
1312472466.99640107,47.37630081,8.55008984,534.22290039,3,1
1312472467.04442263,47.37630081,8.55008984,534.18902588,3,1
1312472467.09643579,47.37630081,8.55008984,534.15509033,3,1
1312472467.14444017,47.37630081,8.55008984,534.12115479,3,1
1312472467.19540644,47.37630081,8.55008984,534.08715820,3,1
1312472467.24347329,47.37630081,8.55008984,534.05316162,3,1
1312472467.29645038,47.37630081,8.55008984,534.01916504,3,1
1312472467.34443927,47.37630081,8.55008984,533.98504639,3,1
1312472467.39648056,47.37630081,8.55008984,533.95092773,3,1
1312472467.44341898,47.37630081,8.55008984,533.91674805,3,1
1312472467.49645329,47.37630081,8.55008984,533.88256836,3,1
1312472467.54430032,47.37630081,8.55008984,533.84826660,3,1
1312472467.59645391,47.37630081,8.55008984,533.81402588,3,1
1312472467.64329767,47.37630081,8.55008984,533.77966309,3,1
1312472467.69534254,47.37630081,8.55008984,533.74530029,3,1
1312472467.74443054,47.37630081,8.55008984,533.71087646,3,1
1312472467.79542994,47.37630081,8.55008984,533.67645264,3,1
1312472467.84328580,47.37630081,8.55008984,533.64190674,3,1
1312472467.89636993,47.37630081,8.55008984,533.60742188,3,1
1312472467.94440746,47.37630081,8.55008984,533.57281494,3,1
1312472467.99233580,47.37630081,8.55008984,533.53826904,3,1
1312472468.04348016,47.37630081,8.55008984,533.50360107,3,1
1312472468.09642863,47.37630081,8.55008984,533.46893311,3,1
1312472468.14434409,47.37630081,8.55008984,533.43420410,3,1
1312472468.19636083,47.37630081,8.55008984,533.39947510,3,1
1312472468.24430418,47.37630081,8.55008984,533.36462402,3,1
1312472468.29636049,47.37630081,8.55008984,533.32977295,3,1
1312472468.34435177,47.37630081,8.55008984,533.29492188,3,1
1312472468.39230251,47.37630081,8.55008984,533.26000977,3,1
1312472468.44329834,47.37630081,8.55008984,533.22503662,3,1
1312472468.49234796,47.37630081,8.55008984,533.19012451,3,1
1312472468.54731512,47.37630081,8.55008984,533.15509033,3,1
1312472468.59643698,47.37630081,8.55008984,533.12011719,3,1
1312472468.64330792,47.37630081,8.55008984,533.08502197,3,1
1312472468.69642901,47.37630081,8.55008984,533.04998779,3,1
1312472468.74331450,47.37630081,8.55008984,533.01483154,3,1
1312472468.79642916,47.37630081,8.55008984,532.97967529,3,1
1312472468.84341192,47.37640381,8.55013084,520.48986816,3,1
1312472468.89530325,47.37640381,8.55013084,520.52630615,3,1
1312472468.94334245,47.37640381,8.55013084,520.56274414,3,1
1312472468.99586058,47.37640381,8.55013084,520.59912109,3,1
1312472469.04367948,47.37640381,8.55013084,520.63549805,3,1
1312472469.09642410,47.37639999,8.55013275,520.61810303,3,1
1312472469.14328837,47.37639999,8.55013275,520.65429688,3,1
1312472469.19629097,47.37639999,8.55013275,520.69049072,3,1
1312472469.24442434,47.37639999,8.55013275,520.72662354,3,1
1312472469.29642892,47.37639999,8.55013275,520.76275635,4,1
1312472469.34408689,47.37639999,8.55013275,520.62487793,4,1
1312472469.39642215,47.37639999,8.55013275,520.66058350,4,1
1312472469.44429636,47.37639999,8.55013275,520.69622803,4,1
1312472469.49531746,47.37639999,8.55013275,520.73187256,4,1
1312472469.54435873,47.37639999,8.55013275,520.76745605,4,1
1312472469.59531689,47.37639999,8.55013371,520.60675049,4,1
1312472469.64335513,47.37639999,8.55013371,520.64190674,4,1
1312472469.69527578,47.37639999,8.55013371,520.67700195,4,1
1312472469.74330306,47.37639999,8.55013275,520.71209717,4,1
1312472469.79629803,47.37639999,8.55013275,520.74713135,4,1
1312472469.84330750,47.37639999,8.55013275,520.61596680,4,1
1312472469.89642835,47.37639999,8.55013275,520.65057373,4,1
1312472469.94330239,47.37639999,8.55013275,520.68518066,4,1
1312472469.99529958,47.37639999,8.55013275,520.71972656,4,1
1312472470.04336143,47.37639999,8.55013275,520.75421143,4,1
1312472470.09532404,47.37639999,8.55013275,520.56066895,4,1
1312472470.14331126,47.37639999,8.55013275,520.59454346,4,1
1312472470.19646406,47.37639999,8.55013275,520.62841797,4,1
1312472470.24332237,47.37639999,8.55013275,520.66223145,4,1
1312472470.29540753,47.37639999,8.55013275,520.69604492,4,1
1312472470.34445000,47.37639999,8.55013180,520.54046631,4,1
1312472470.39541769,47.37639999,8.55013180,520.57373047,4,1
1312472470.44347358,47.37639999,8.55013180,520.60693359,4,1
1312472470.49533057,47.37639999,8.55013180,520.64013672,4,1
1312472470.54739618,47.37639999,8.55013180,520.67327881,4,1
1312472470.59540772,47.37639999,8.55013180,520.51818848,4,1
1312472470.64329696,47.37639999,8.55013180,520.55078125,4,1
1312472470.69242382,47.37639999,8.55013180,520.58331299,4,1
1312472470.74332142,47.37639999,8.55013180,520.61584473,4,1
1312472470.79641914,47.37639999,8.55013180,520.64837646,4,1
1312472470.84349418,47.37639999,8.55013180,520.50079346,4,1
1312472470.89642119,47.37639999,8.55013180,520.53277588,4,1
1312472470.94328785,47.37639999,8.55013180,520.56469727,4,1
1312472470.99643874,47.37639999,8.55013180,520.59655762,4,1
1312472471.04434395,47.37639999,8.55013180,520.62841797,4,1
1312472471.09238553,47.37639999,8.55013084,520.55426025,4,1
1312472471.14358783,47.37639999,8.55013084,520.58575439,4,1
1312472471.19236875,47.37639999,8.55013084,520.61718750,4,1
1312472471.24456406,47.37639999,8.55013084,520.64862061,4,1
1312472471.29637671,47.37639999,8.55013084,520.67999268,4,1
1312472471.34425712,47.37639999,8.55013084,520.68090820,4,1
1312472471.39636445,47.37639999,8.55013084,520.71209717,4,1
1312472471.44327426,47.37639999,8.55013084,520.74322510,4,1
1312472471.49636173,47.37639999,8.55013084,520.77435303,4,1
1312472471.54434037,47.37639618,8.55013084,520.80548096,4,1
1312472471.59642911,47.37639999,8.55013084,520.81378174,4,1
1312472471.64429617,47.37639999,8.55013084,520.84472656,4,1
1312472471.69641805,47.37639618,8.55013084,520.87567139,4,1
1312472471.74327374,47.37639618,8.55013084,520.90661621,4,1
1312472471.79642105,47.37639618,8.55012989,520.93750000,4,1
1312472471.84327459,47.37639618,8.55012989,520.92578125,4,1
1312472471.89643526,47.37639618,8.55012989,520.95648193,4,1
1312472471.94328904,47.37639618,8.55012989,520.98706055,4,1
1312472471.99641609,47.37639618,8.55012989,521.01763916,4,1
1312472472.04345179,47.37639618,8.55012989,521.04815674,4,1
1312472472.09634399,47.37639618,8.55012894,521.01165771,4,1
1312472472.14442134,47.37639618,8.55012894,521.04193115,4,1
1312472472.19639611,47.37639618,8.55012894,521.07208252,4,1
1312472472.24333477,47.37639618,8.55012894,521.10229492,4,1
1312472472.29642749,47.37639618,8.55012894,521.13238525,4,1
1312472472.34327435,47.37639618,8.55012894,521.11621094,4,1
1312472472.39642072,47.37639618,8.55012894,521.14617920,4,1
1312472472.44434237,47.37639618,8.55012894,521.17608643,4,1
1312472472.49643040,47.37639618,8.55012894,521.20593262,4,1
1312472472.54329491,47.37639618,8.55012894,521.23571777,4,1
1312472472.59641886,47.37639618,8.55012894,521.19610596,4,1
1312472472.64339471,47.37639618,8.55012894,521.22570801,4,1
1312472472.69641590,47.37639618,8.55012894,521.25524902,4,1
1312472472.74441648,47.37639618,8.55012894,521.28479004,4,1
1312472472.79643536,47.37639618,8.55012894,521.31427002,4,1
1312472472.84332037,47.37639618,8.55012894,521.27593994,4,1
1312472472.89645290,47.37639618,8.55012894,521.30523682,4,1
1312472472.94339108,47.37639618,8.55012894,521.33447266,4,1
1312472472.99641681,47.37639618,8.55012894,521.36364746,4,1
1312472473.04330587,47.37639618,8.55012894,521.39276123,4,1
1312472473.09642673,47.37639618,8.55012894,521.36944580,4,1
1312472473.14334512,47.37639618,8.55012894,521.39837646,4,1
1312472473.19642401,47.37639618,8.55012894,521.42730713,4,1
1312472473.24335790,47.37639618,8.55012894,521.45623779,4,1
1312472473.29642344,47.37639618,8.55012894,521.48504639,4,1
1312472473.34340668,47.37639618,8.55012798,521.44543457,4,1
1312472473.39633679,47.37639618,8.55012798,521.47406006,4,1
1312472473.44626546,47.37639618,8.55012798,521.50262451,4,1
1312472473.49535155,47.37639618,8.55012798,521.53112793,4,1
1312472473.54332137,47.37639618,8.55012798,521.55969238,4,1
1312472473.59540415,47.37639618,8.55012703,521.52459717,4,1
1312472473.64336038,47.37639618,8.55012703,521.55291748,4,1
1312472473.69630837,47.37639618,8.55012703,521.58117676,4,1
1312472473.74332833,47.37639618,8.55012703,521.60943604,4,1
1312472473.79641509,47.37639618,8.55012703,521.63763428,4,1
1312472473.84342837,47.37639618,8.55012703,521.53833008,4,1
1312472473.89541531,47.37639618,8.55012703,521.56610107,4,1
1312472473.94328666,47.37639618,8.55012703,521.59387207,4,1
1312472473.99242878,47.37639618,8.55012703,521.62152100,4,1
1312472474.04446292,47.37639618,8.55012703,521.64916992,4,1
1312472474.09639525,47.37639618,8.55012798,521.55566406,4,1
1312472474.14327002,47.37639618,8.55012798,521.58294678,4,1
1312472474.19526553,47.37639618,8.55012798,521.61016846,4,1
1312472474.24328089,47.37639618,8.55012703,521.63739014,4,1
1312472474.29566765,47.37639618,8.55012703,521.66455078,4,1
1312472474.34328127,47.37639618,8.55012798,521.56738281,4,1
1312472474.39638710,47.37639236,8.55012798,521.59417725,4,1
1312472474.44329548,47.37639236,8.55012703,521.62084961,4,1
1312472474.49630213,47.37639236,8.55012703,521.64758301,4,1
1312472474.54330659,47.37639236,8.55012703,521.67419434,4,1
1312472474.59638953,47.37639618,8.55012703,521.60528564,4,1
1312472474.64441776,47.37639236,8.55012703,521.63159180,4,1
1312472474.69642067,47.37639236,8.55012703,521.65789795,4,1
1312472474.73627520,47.37639236,8.55012703,521.68414307,4,1
1312472474.79642558,47.37639236,8.55012608,521.70513916,4,1
1312472474.83628631,47.37639236,8.55012608,521.66308594,4,1
1312472474.89643478,47.37639236,8.55012608,521.68383789,4,1
1312472474.93530416,47.37639236,8.55012608,521.71490479,4,1
1312472474.99629831,47.37639236,8.55012608,521.73559570,4,1
1312472475.03585076,47.37639236,8.55012608,521.76660156,4,1
1312472475.08442116,47.37639236,8.55012608,521.74078369,4,1
1312472475.13546753,47.37639236,8.55012512,521.76635742,4,1
1312472475.18741059,47.37639236,8.55012512,521.79193115,4,1
1312472475.23642159,47.37639236,8.55012512,521.81744385,4,1
1312472475.28802252,47.37639236,8.55012512,521.84289551,4,1
1312472475.33664560,47.37639236,8.55012608,521.84429932,4,1
1312472475.38741708,47.37639236,8.55012608,521.86956787,4,1
1312472475.43529844,47.37639236,8.55012608,521.89483643,4,1
1312472475.48428416,47.37639236,8.55012608,521.92004395,4,1
1312472475.53687453,47.37639236,8.55012608,521.94519043,4,1
1312472475.58729744,47.37639236,8.55012608,521.97058105,4,1
1312472475.63529658,47.37639236,8.55012608,521.99560547,4,1
1312472475.68441272,47.37639236,8.55012608,522.02069092,4,1
1312472475.73531342,47.37639236,8.55012512,522.04565430,4,1
1312472475.78437972,47.37639236,8.55012512,522.07061768,4,1
1312472475.83531284,47.37639236,8.55012512,522.12457275,4,1
1312472475.88429594,47.37638855,8.55012512,522.14953613,4,1
1312472475.93527794,47.37638855,8.55012512,522.17443848,4,1
1312472475.98741531,47.37638855,8.55012512,522.19934082,4,1
1312472476.03928709,47.37638855,8.55012512,522.22412109,4,1
1312472476.08842897,47.37638855,8.55012512,522.29705811,4,1
1312472476.13627195,47.37638855,8.55012512,522.32196045,4,1
1312472476.18740582,47.37638855,8.55012512,522.34686279,4,1
1312472476.23530817,47.37638855,8.55012512,522.37164307,4,1
1312472476.28742099,47.37638855,8.55012512,522.39648438,4,1
1312472476.33531451,47.37638855,8.55012608,522.48522949,4,1
1312472476.38729501,47.37638855,8.55012608,522.51013184,4,1
1312472476.43533564,47.37638855,8.55012608,522.53497314,4,1
1312472476.48741078,47.37638855,8.55012608,522.55981445,4,1
1312472476.53657675,47.37638855,8.55012608,522.58459473,4,1
1312472476.58734965,47.37638855,8.55012703,522.68865967,4,1
1312472476.63528490,47.37638855,8.55012703,522.71362305,4,1
1312472476.68350458,47.37638855,8.55012703,522.73852539,4,1
1312472476.73528790,47.37638474,8.55012703,522.76342773,4,1
1312472476.78740311,47.37638474,8.55012703,522.78826904,4,1
1312472476.83531475,47.37638855,8.55012608,522.91064453,4,1
1312472476.88741422,47.37638855,8.55012608,522.93572998,4,1
1312472476.93630362,47.37638855,8.55012608,522.96069336,4,1
1312472476.99232507,47.37638855,8.55012608,522.98571777,4,1
1312472477.03629947,47.37638474,8.55012608,523.01562500,4,1
1312472477.08743691,47.37638855,8.55012608,523.14379883,4,1
1312472477.13533211,47.37638855,8.55012608,523.16900635,4,1
1312472477.18431902,47.37638855,8.55012608,523.19421387,4,1
1312472477.23529911,47.37638855,8.55012608,523.21936035,4,1
1312472477.28437018,47.37638474,8.55012608,523.24450684,4,1
1312472477.33629894,47.37638855,8.55012608,523.38500977,4,1
1312472477.38732696,47.37638855,8.55012608,523.41046143,4,1
1312472477.43528986,47.37638855,8.55012608,523.43585205,4,1
1312472477.48733544,47.37638855,8.55012608,523.46124268,4,1
1312472477.53930092,47.37638855,8.55012608,523.48657227,4,1
1312472477.58832026,47.37638855,8.55012608,523.63269043,4,1
1312472477.63527989,47.37638855,8.55012608,523.65838623,4,1
1312472477.68430877,47.37638855,8.55012608,523.68402100,4,1
1312472477.73537135,47.37638855,8.55012608,523.70959473,4,1
1312472477.78733802,47.37638855,8.55012608,523.73516846,4,1
1312472477.83637047,47.37638474,8.55012608,523.88208008,4,1
1312472477.88403368,47.37638474,8.55012608,523.90795898,4,1
1312472477.93660688,47.37638474,8.55012608,523.93371582,4,1
1312472477.98414516,47.37638474,8.55012608,523.95953369,4,1
1312472478.03926396,47.37638474,8.55012608,523.98529053,4,1
1312472478.08443403,47.37638474,8.55012703,524.14746094,4,1
1312472478.13627982,47.37638474,8.55012703,524.17358398,4,1
1312472478.19651699,47.37638474,8.55012703,524.19970703,4,1
1312472478.23636651,47.37638474,8.55012703,524.23095703,4,1
1312472478.28740525,47.37638474,8.55012703,524.25177002,4,1
1312472478.33627582,47.37638474,8.55012703,524.43432617,4,1
1312472478.38430786,47.37638474,8.55012703,524.46075439,4,1
1312472478.43641329,47.37638474,8.55012703,524.48718262,4,1
1312472478.48843670,47.37638474,8.55012703,524.51361084,4,1
1312472478.53531623,47.37638474,8.55012703,524.53997803,4,1
1312472478.59627700,47.37638474,8.55012798,524.73431396,4,1
1312472478.63632321,47.37638474,8.55012798,524.76654053,4,1
1312472478.68745279,47.37638474,8.55012798,524.78796387,4,1
1312472478.73641753,47.37638474,8.55012798,524.81475830,4,1
1312472478.78431797,47.37638474,8.55012798,524.84149170,4,1
1312472478.83646512,47.37638474,8.55012703,525.04248047,4,1
1312472478.88728952,47.37638474,8.55012703,525.06964111,4,1
1312472478.93527436,47.37638474,8.55012703,525.09686279,4,1
1312472478.98853469,47.37638474,8.55012703,525.12396240,4,1
1312472479.03635550,47.37638474,8.55012703,525.15100098,4,1
1312472479.08742142,47.37638092,8.55012798,525.36236572,4,1
1312472479.13547301,47.37638092,8.55012798,525.39001465,4,1
1312472479.18827105,47.37638092,8.55012798,525.41760254,4,1
1312472479.23648739,47.37638092,8.55012798,525.44519043,4,1
1312472479.28831124,47.37638092,8.55012798,525.47271729,3,1
1312472479.33535767,47.37638092,8.55012798,525.69927979,3,1
1312472479.38835454,47.37638092,8.55012798,525.72741699,3,1
1312472479.43530631,47.37638092,8.55012798,525.75555420,3,1
1312472479.48835373,47.37638092,8.55012798,525.78363037,3,1
1312472479.53529000,47.37638092,8.55012798,525.81170654,3,1
1312472479.58730960,47.37638092,8.55012894,526.03961182,3,1
1312472479.63927984,47.37638092,8.55012894,526.06835938,3,1
1312472479.68742776,47.37638092,8.55012894,526.09704590,3,1
1312472479.73629212,47.37638092,8.55012894,526.12567139,3,1
1312472479.78438449,47.37638092,8.55012894,526.15429688,3,1
1312472479.83532405,47.37638092,8.55012894,526.37207031,3,1
1312472479.88832593,47.37638092,8.55012894,526.40130615,3,1
1312472479.93631196,47.37637711,8.55012894,526.43054199,3,1
1312472479.98740506,47.37637711,8.55012894,526.45965576,3,1
1312472480.03527904,47.37637711,8.55012894,526.48876953,3,1
1312472480.08441710,47.37637711,8.55012894,526.71051025,3,1
1312472480.13629508,47.37637711,8.55012894,526.74023438,3,1
1312472480.19632387,47.37637711,8.55012894,526.76995850,3,1
1312472480.23632050,47.37637711,8.55012894,526.80554199,3,1
1312472480.28743243,47.37637711,8.55012894,526.82922363,3,1
1312472480.33531904,47.37637711,8.55012894,527.05358887,3,1
1312472480.38434386,47.37637711,8.55012894,527.08386230,3,1
1312472480.43527842,47.37637711,8.55012894,527.11413574,3,1
1312472480.48728657,47.37637711,8.55012989,527.14434814,3,1
1312472480.53638291,47.37637711,8.55012989,527.17449951,3,1
1312472480.58727217,47.37637711,8.55012989,527.39074707,3,1
1312472480.63628316,47.37637711,8.55012989,527.42156982,3,1
1312472480.68435073,47.37637711,8.55012989,527.45233154,3,1
1312472480.73533702,47.37637711,8.55012989,527.48309326,3,1
1312472480.78472137,47.37637711,8.55012989,527.51379395,3,1
1312472480.83530664,47.37637711,8.55012989,527.71624756,3,1
1312472480.88442707,47.37637711,8.55012989,527.74755859,3,1
1312472480.93626451,47.37637711,8.55012989,527.77880859,3,1
1312472480.98436046,47.37637711,8.55012989,527.80999756,3,1
1312472481.03529286,47.37637711,8.55012989,527.84118652,3,1
1312472481.08441067,47.37637711,8.55013084,528.03302002,3,1
1312472481.13539839,47.37637711,8.55013084,528.06469727,3,1
1312472481.18429208,47.37637711,8.55013084,528.09643555,3,1
1312472481.23640490,47.37637711,8.55013084,528.12805176,3,1
1312472481.28491640,47.37637711,8.55013084,528.15972900,3,1
1312472481.33534837,47.37637711,8.55012989,528.33288574,3,1
1312472481.39645767,47.37637711,8.55012989,528.36499023,3,1
1312472481.43530798,47.37637711,8.55012989,528.40344238,3,1
1312472481.48442864,47.37637711,8.55012989,528.42907715,3,1
1312472481.53527737,47.37637711,8.55013084,528.46105957,3,1
1312472481.58396220,47.37637329,8.55013084,528.63122559,3,1
1312472481.63650560,47.37637329,8.55013084,528.66369629,3,1
1312472481.68441415,47.37637329,8.55013084,528.69610596,3,1
1312472481.73634672,47.37637329,8.55013084,528.72845459,3,1
1312472481.78436208,47.37637329,8.55013084,528.76080322,3,1
1312472481.83634663,47.37637329,8.55012989,528.91333008,3,1
1312472481.88442421,47.37637329,8.55012989,528.94604492,3,1
1312472481.93636632,47.37637329,8.55012989,528.97869873,3,1
1312472481.98744512,47.37637329,8.55012989,529.01135254,3,1
1312472482.03527617,47.37637329,8.55012989,529.04400635,3,1
1312472482.08442998,47.37637329,8.55012894,529.18377686,3,1
1312472482.13548422,47.37637329,8.55012989,529.21667480,3,1
1312472482.19540477,47.37637329,8.55012989,529.24963379,3,1
1312472482.23528314,47.37637329,8.55012989,529.28912354,3,1
1312472482.28441787,47.37637329,8.55012989,529.31536865,3,1
1312472482.33534002,47.37637329,8.55012989,529.43859863,3,1
1312472482.38804984,47.37637329,8.55012989,529.47174072,3,1
1312472482.43647194,47.37637329,8.55012989,529.50482178,3,1
1312472482.48824382,47.37637329,8.55012989,529.53784180,3,1
1312472482.53628302,47.37637329,8.55012989,529.57086182,3,1
1312472482.59251523,47.37637329,8.55012989,529.67645264,3,1
1312472482.63528514,47.37637329,8.55012989,529.71630859,3,1
1312472482.68848729,47.37637329,8.55012989,529.74285889,3,1
1312472482.73529577,47.37637329,8.55012989,529.77600098,3,1
1312472482.78432679,47.37637329,8.55012989,529.80914307,3,1
1312472482.84331155,47.37637329,8.55013084,529.90948486,3,1
